RH
100 100 100 100 100 100 100 100 100 100 100 100 100 100 100 100 100 100 100 100 98 76 80 94 95 100 100 93 86 82 70 76 77 84 65 65 68 58 70 74 80 70 60 40
100 100 100 100 100 100 100 100 100 100 100 100 100 100 100 100 100 100 100 94 89 94 99 95 100 100 100 93 91 88 71 82 81 82 63 62 71 58 64 62 71 67 49 37
97 100 100 100 100 100 100 100 100 100 100 100 100 100 100 92 99 100 98 99 100 100 100 100 100 100 100 98 97 94 75 82 70 80 73 66 63 65 59 64 71 62 50 30
100 96 100 100 100 100 100 100 100 100 100 100 100 100 100 100 100 100 100 100 100 100 100 100 100 100 99 90 96 83 78 76 76 71 76 72 66 68 56 62 71 65 44 29
99 89 100 100 100 100 70 92 100 100 100 100 100 100 92 100 100 100 100 100 100 100 100 100 100 97 99 92 96 84 82 77 70 90 77 60 60 67 61 75 58 66 47 26
100 95 98 98 91 88 86 59 77 100 100 100 100 100 100 100 100 100 100 100 100 100 100 100 100 100 94 98 100 93 90 79 73 79 60 51 70 55 66 65 55 46 41 21
69 93 100 92 59 100 83 70 56 74 100 100 100 100 100 100 100 100 100 100 100 100 100 100 100 100 100 98 100 96 93 89 83 76 55 51 52 57 62 75 57 46 33 22
79 50 98 98 97 88 97 100 94 83 100 100 100 100 100 100 98 100 100 100 100 100 100 100 100 100 100 100 100 97 91 92 95 72 55 51 59 59 61 70 68 42 31 25
61 62 68 100 100 74 84 100 100 100 91 97 94 93 100 100 100 100 100 100 100 100 100 77 96 93 98 100 100 100 93 97 83 68 64 46 56 51 58 57 58 37 29 27
100 100 100 100 100 90 54 78 100 100 93 99 100 100 100 88 100 100 100 100 100 100 100 100 100 100 98 100 100 100 95 93 76 69 55 53 56 48 57 56 47 33 24 27
100 100 100 100 100 93 87 92 97 100 100 100 100 100 100 78 76 100 100 100 100 100 100 100 100 100 100 100 100 100 100 90 76 62 55 58 52 54 61 53 42 28 24 25
100 100 100 100 100 100 91 90 90 98 100 100 82 100 88 90 77 100 100 92 92 100 100 100 100 100 100 96 96 100 97 86 84 65 58 52 50 51 48 50 37 25 27 24
100 100 100 100 100 100 100 100 95 100 100 91 96 99 99 98 88 100 100 100 100 100 99 99 94 100 100 100 99 97 88 89 77 76 74 58 54 56 42 43 33 24 28 25
100 100 100 100 100 100 100 100 100 100 100 93 97 82 68 98 82 70 92 98 100 100 93 87 92 100 100 100 100 89 89 84 71 84 59 57 56 58 45 42 25 25 26 20
100 100 100 100 100 100 100 100 100 100 100 99 83 75 90 100 69 70 94 100 100 100 100 90 100 100 100 100 87 89 90 80 75 65 63 65 57 40 41 30 22 27 26 12
100 100 100 100 100 100 100 100 100 100 100 100 91 88 79 98 99 100 100 100 100 100 96 96 96 100 100 94 89 86 83 77 74 65 72 54 49 42 35 24 25 28 20 10
100 100 100 100 100 100 100 100 100 100 100 100 100 98 98 100 100 100 100 100 100 100 100 97 100 100 97 91 78 75 84 81 76 71 60 52 45 36 27 21 27 26 12 10
64 100 100 100 100 100 100 100 100 100 100 100 100 100 100 100 100 100 100 100 100 100 100 100 100 100 100 95 83 87 80 84 78 67 61 47 36 35 21 23 27 18 9 9
46 100 100 100 100 100 100 100 100 100 100 100 100 100 100 100 100 100 100 100 100 100 100 100 100 99 92 81 92 83 94 88 74 62 61 35 39 23 21 25 22 10 9 10
74 98 100 100 100 100 100 100 100 100 100 100 100 100 100 100 100 100 100 100 100 100 100 100 100 100 100 99 93 97 86 85 74 58 35 38 28 23 26 24 13 9 9 11
52 99 100 100 100 100 100 100 100 100 100 100 100 100 100 100 100 100 100 100 100 100 100 100 100 100 100 99 100 92 98 81 52 31 39 30 23 27 27 17 9 9 10 12
46 52 95 100 100 100 100 100 100 100 100 100 100 100 100 100 100 100 100 100 100 100 100 100 100 100 100 97 97 98 79 44 32 41 31 23 27 28 21 11 8 9 12 12
54 84 99 100 100 100 100 100 100 100 100 100 100 100 100 100 100 100 100 100 100 100 100 100 100 100 99 97 93 75 36 37 42 30 26 28 30 25 13 8 8 10 12 12
86 100 100 100 100 100 100 100 100 100 100 100 100 100 100 100 100 100 100 100 100 100 100 100 100 97 93 90 58 31 43 40 32 29 31 30 28 15 9 8 8 11 12 10
99 100 100 100 100 100 100 100 100 100 100 100 100 100 100 100 100 100 100 100 100 100 100 99 96 89 72 40 43 47 38 33 32 34 32 30 19 10 8 8 10 12 11 8
30 83 100 100 100 100 100 100 100 100 100 100 100 100 100 100 100 100 100 100 100 100 100 94 80 51 40 55 45 38 34 35 38 34 32 23 11 8 8 8 11 12 10 8
21 31 64 100 100 100 100 100 100 100 100 100 100 100 100 100 100 100 100 100 100 100 85 57 51 54 57 45 40 40 39 42 36 35 27 14 9 8 8 10 11 11 10 8
Wind_Speed
57 57 58 57 56 57 59 59 59 57 58 59 59 61 61 64 67 68 69 70 73 78 80 82 86 89 93 97 100 101 107 110 111 111 120 121 123 130 132 135 136 134 135 128
61 58 59 61 60 58 63 64 63 62 61 60 63 65 68 66 67 70 70 74 78 80 85 88 89 93 95 99 102 104 108 110 113 116 123 126 126 133 131 141 137 135 135 130
65 62 64 63 64 66 64 65 67 66 64 66 66 69 73 74 74 74 75 78 81 86 89 92 94 95 96 100 103 107 108 112 117 118 127 130 130 136 135 143 142 133 135 126
72 71 70 69 71 70 72 71 70 69 71 70 71 73 74 74 76 77 79 82 84 88 90 96 97 99 99 103 106 107 112 117 118 124 128 129 133 137 141 145 141 136 131 126
79 82 83 84 80 79 77 75 76 76 75 73 76 78 76 78 79 79 82 84 89 91 93 95 95 101 103 105 105 110 114 121 122 123 128 132 133 139 141 147 140 135 134 123
90 92 92 89 93 85 83 84 82 82 81 83 83 82 83 79 81 83 84 87 91 94 96 99 99 103 108 109 110 117 122 121 122 125 128 135 138 142 145 146 142 133 133 119
96 95 96 96 97 97 91 88 88 87 85 88 88 86 83 84 84 85 87 92 94 96 99 101 105 108 110 114 115 120 120 124 124 130 133 137 142 142 148 150 141 138 131 118
108 104 104 100 98 98 94 90 89 89 89 88 89 88 87 90 87 87 90 93 96 97 101 105 107 109 112 114 116 120 122 125 129 135 140 141 142 143 148 149 141 136 129 120
115 112 112 112 109 103 98 90 95 94 95 93 93 92 94 93 93 94 95 97 102 103 105 109 110 112 116 116 120 120 122 127 133 138 144 147 147 145 150 144 141 131 124 116
124 121 120 120 119 109 102 95 99 99 96 97 95 94 98 95 95 97 99 99 103 106 109 110 112 113 116 121 122 123 125 129 136 140 146 146 150 148 151 144 137 126 117 112
122 119 124 122 120 119 103 104 103 103 102 102 98 98 98 102 99 104 105 106 108 110 112 115 116 116 119 122 125 126 128 132 139 144 147 149 151 151 148 139 132 122 114 109
116 116 121 124 126 118 116 110 108 108 104 104 105 101 98 99 102 107 109 111 113 113 114 118 119 121 125 128 126 125 129 134 140 146 147 150 146 151 140 138 129 120 112 108
116 112 116 117 120 120 114 115 116 113 106 109 104 102 99 99 104 106 110 112 113 115 118 123 125 125 125 127 127 129 133 134 139 146 150 153 145 148 135 133 123 115 108 109
118 119 113 114 116 115 115 113 117 121 117 113 106 106 104 103 106 109 111 112 115 118 122 126 126 126 126 130 130 133 133 135 138 144 153 148 147 144 137 129 118 109 105 105
121 116 114 112 113 111 110 113 117 119 118 113 107 107 106 105 108 111 112 115 119 120 121 125 125 126 127 128 132 130 132 136 140 147 149 142 146 134 128 120 113 106 106 98
128 116 121 118 116 114 114 116 117 121 120 117 114 112 109 106 106 109 112 116 116 119 120 119 125 124 122 125 127 130 131 135 140 147 141 144 136 129 120 115 108 105 103 92
126 124 120 121 122 117 116 118 119 121 121 117 118 115 111 111 110 110 108 112 116 114 118 121 119 121 121 122 126 130 131 135 140 140 142 137 131 121 115 108 105 105 97 85
116 128 124 120 120 117 119 120 120 118 113 115 117 115 114 112 112 111 112 114 118 119 119 118 117 119 120 122 127 129 132 135 138 138 137 131 122 115 110 104 102 101 90 78
111 120 123 121 124 119 113 110 112 115 118 118 116 117 115 113 113 112 112 117 116 116 115 112 115 118 121 123 125 130 130 135 135 135 132 122 116 111 105 103 102 94 83 71
107 115 125 123 120 114 110 108 113 114 114 108 105 110 111 111 112 113 115 115 113 110 115 115 117 119 119 120 125 126 130 131 134 128 120 112 108 105 105 102 97 87 75 66
101 110 115 122 117 116 114 108 113 112 105 107 108 110 109 106 105 107 109 106 108 109 110 113 116 118 120 123 124 126 126 129 123 115 110 106 103 103 101 99 90 79 68 62
95 101 107 116 118 112 110 105 107 105 99 101 107 107 104 103 102 105 106 107 108 111 111 113 115 120 122 124 120 120 122 117 112 107 103 101 102 99 98 93 81 70 64 59
84 94 98 103 108 113 113 114 104 104 104 108 107 105 105 105 108 107 106 107 108 111 110 112 117 118 118 113 115 115 110 107 103 99 100 100 100 98 94 85 74 64 60 57
75 81 87 94 98 101 105 102 97 96 101 105 106 106 106 105 104 105 107 107 107 106 108 108 110 107 108 108 106 104 101 98 96 98 99 99 96 94 86 77 67 61 57 53
73 78 85 93 98 96 92 91 93 97 103 101 103 102 101 101 101 103 104 101 100 102 100 101 101 101 100 98 96 96 92 92 95 96 96 93 93 88 78 69 62 59 55 49
64 74 82 88 93 97 97 96 93 93 98 99 96 95 96 95 96 96 95 95 95 95 93 93 93 91 91 90 90 87 89 92 93 95 91 91 88 80 71 63 59 56 52 47
53 57 59 67 77 84 88 91 91 89 87 87 88 86 85 85 86 86 87 88 87 84 84 83 83 84 86 85 83 87 89 90 92 90 89 88 82 74 66 60 56 53 49 45
Wind_Direction
276 279 282 281 285 288 290 291 293 294 297 300 302 302 304 304 308 310 310 312 314 315 315 316 318 319 321 323 325 328 330 333 333 334 335 336 336 337 337 337 337 337 337 335
277 278 279 281 284 286 291 292 293 294 297 299 299 300 303 303 306 309 310 311 313 312 312 314 315 317 320 323 324 328 332 332 334 334 335 336 337 336 336 338 337 338 337 335
272 275 279 279 284 288 285 290 293 293 295 296 296 297 299 302 304 307 307 310 310 311 314 313 313 315 319 322 325 328 330 332 334 334 335 336 336 336 336 338 338 340 338 335
269 271 275 278 281 284 286 287 288 289 291 293 295 296 299 303 305 307 308 309 311 312 312 313 315 317 319 322 325 327 328 330 333 333 334 335 335 334 337 337 338 340 338 336
267 270 272 276 279 281 282 285 288 287 287 289 292 295 299 300 303 306 307 308 311 312 312 313 314 316 318 321 323 325 327 329 333 334 335 334 334 334 337 339 338 339 338 336
268 272 271 275 277 276 279 282 283 286 286 288 289 292 296 298 301 302 304 306 308 310 311 313 315 315 318 320 323 324 326 330 333 332 334 334 333 333 338 337 340 338 338 336
266 269 267 271 275 273 276 279 282 283 283 286 289 293 292 297 299 302 303 305 306 309 310 312 314 316 317 320 322 324 328 329 333 331 332 333 333 333 337 339 339 337 337 337
264 269 268 268 268 271 270 277 277 281 282 285 288 291 294 297 299 300 302 305 308 309 310 312 315 317 317 319 320 323 325 328 331 333 332 332 332 335 336 340 339 338 337 337
262 265 268 268 268 268 269 273 276 277 282 284 285 288 292 296 298 300 301 302 305 307 308 310 312 315 316 319 321 322 325 327 328 332 331 332 332 334 337 338 338 337 336 336
258 262 263 266 267 265 268 269 272 275 279 281 282 285 289 292 294 298 300 302 303 305 307 309 311 314 316 318 321 323 323 326 328 329 330 332 331 332 336 336 337 335 336 336
255 258 258 262 265 266 264 267 269 272 275 278 280 282 287 289 293 295 297 300 302 304 305 309 312 314 314 317 320 321 323 325 327 327 327 330 331 332 336 336 335 334 336 336
248 251 255 259 261 265 264 263 268 269 270 273 277 280 285 287 290 292 295 298 301 303 306 308 310 312 314 317 319 320 323 325 325 327 327 327 328 332 335 336 333 334 335 337
242 243 251 256 259 263 265 265 265 269 269 270 275 278 282 285 287 291 294 295 299 301 304 307 309 311 313 315 317 318 321 323 325 325 327 327 328 331 334 335 333 334 335 336
239 241 244 249 254 259 262 265 266 266 266 271 274 276 281 283 286 289 292 295 297 299 302 305 307 308 312 313 316 318 319 321 322 324 324 326 328 330 333 332 332 334 336 335
236 238 240 244 249 254 258 261 264 266 268 270 273 275 277 281 284 286 291 293 295 299 302 305 306 308 311 313 314 317 318 320 322 323 323 325 326 329 331 330 331 334 336 335
232 235 238 242 245 250 253 257 261 265 267 270 272 274 278 282 284 288 291 292 295 298 301 305 307 308 311 313 314 315 317 320 320 321 323 325 328 329 329 330 332 333 334 333
235 233 237 242 245 248 251 255 260 263 267 270 272 275 277 279 284 288 291 293 296 298 302 304 306 307 310 313 314 316 318 318 321 322 323 325 327 328 327 330 332 333 333 332
236 236 236 241 245 247 251 256 259 264 268 270 272 274 278 280 283 286 288 292 296 299 301 303 304 306 309 311 314 316 317 319 320 320 324 325 327 326 327 331 332 332 332 330
237 236 237 240 245 246 250 255 259 260 263 268 272 274 276 280 283 286 289 293 297 298 301 302 305 307 310 312 313 314 317 318 319 322 322 324 325 325 329 331 332 332 330 329
236 238 235 240 242 248 250 254 257 262 264 268 272 275 278 280 282 286 288 292 296 298 299 303 306 308 310 312 313 315 316 317 319 320 322 324 324 327 329 331 332 330 329 327
235 239 239 239 241 247 249 252 257 261 265 269 271 274 278 281 285 287 290 294 296 299 301 303 305 307 309 311 312 314 315 316 317 320 323 323 325 328 329 330 330 329 328 327
235 238 239 240 238 244 248 251 255 261 265 269 273 275 279 282 284 286 288 291 295 297 299 302 305 306 308 310 312 314 314 315 318 321 322 324 327 327 330 330 329 328 327 327
233 236 238 240 241 242 245 248 253 260 264 267 271 275 278 280 282 284 288 291 294 296 299 301 304 306 308 310 312 312 314 316 319 322 324 327 326 328 330 328 328 328 328 326
231 232 236 239 240 242 247 250 253 258 262 265 268 272 276 278 281 285 289 292 295 296 299 301 304 306 309 310 310 313 315 319 323 324 325 325 327 329 329 328 328 328 328 327
230 232 233 238 243 247 249 252 254 257 261 265 268 271 276 278 280 284 289 292 294 295 300 302 305 306 307 309 312 314 319 323 324 324 325 326 328 329 329 328 328 329 329 328
228 230 232 235 238 243 247 250 253 256 259 262 267 271 275 279 282 286 288 291 293 297 301 303 304 305 307 310 314 319 323 324 324 323 326 328 328 329 328 328 329 329 329 329
228 232 235 236 237 241 245 248 250 254 257 262 268 273 276 279 281 285 288 290 295 299 301 302 304 306 309 314 319 323 324 323 323 325 327 329 329 329 328 328 330 330 330 329